QPF
0.06 0.09 0.11 0.08 0.05 0.03 0.02 0.02 0.02 0.01 0.00 0.00 0.00 0.00 0.00 0.00 0.00 0.00 0.00 0.00 0.00 0.00 0.01 0.01 0.01 0.02 0.02 0.02 0.02 0.02 0.02 0.02 0.01 0.01 0.01 0.01 0.01 0.01 0.01 0.01 0.01 0.01 0.01
0.04 0.07 0.10 0.08 0.05 0.04 0.03 0.03 0.02 0.02 0.01 0.01 0.00 0.00 0.00 0.00 0.00 0.00 0.00 0.00 0.00 0.00 0.00 0.01 0.01 0.01 0.02 0.02 0.02 0.03 0.02 0.02 0.02 0.02 0.01 0.01 0.01 0.01 0.01 0.01 0.01 0.01 0.01
0.04 0.05 0.07 0.08 0.06 0.05 0.05 0.04 0.03 0.02 0.02 0.02 0.01 0.01 0.00 0.00 0.00 0.00 0.00 0.00 0.00 0.00 0.00 0.00 0.01 0.01 0.02 0.02 0.02 0.03 0.03 0.02 0.02 0.02 0.02 0.01 0.01 0.02 0.01 0.01 0.01 0.01 0.02
0.04 0.04 0.06 0.08 0.07 0.06 0.06 0.04 0.03 0.02 0.02 0.01 0.01 0.01 0.00 0.00 0.00 0.00 0.00 0.00 0.00 0.00 0.00 0.00 0.01 0.01 0.01 0.02 0.02 0.03 0.03 0.03 0.02 0.02 0.02 0.02 0.01 0.01 0.02 0.02 0.02 0.02 0.02
0.05 0.06 0.06 0.07 0.07 0.07 0.07 0.05 0.02 0.02 0.01 0.01 0.01 0.01 0.01 0.01 0.01 0.00 0.00 0.00 0.00 0.00 0.00 0.00 0.01 0.01 0.01 0.01 0.02 0.02 0.03 0.04 0.03 0.02 0.02 0.02 0.01 0.01 0.02 0.02 0.02 0.02 0.02
0.10 0.09 0.08 0.07 0.07 0.07 0.07 0.06 0.02 0.01 0.01 0.01 0.01 0.01 0.01 0.01 0.01 0.01 0.00 0.00 0.00 0.00 0.00 0.00 0.00 0.01 0.01 0.01 0.01 0.02 0.03 0.04 0.04 0.03 0.03 0.03 0.02 0.02 0.02 0.02 0.02 0.02 0.02
0.13 0.11 0.09 0.07 0.08 0.08 0.08 0.06 0.03 0.02 0.02 0.02 0.02 0.01 0.01 0.01 0.01 0.00 0.00 0.00 0.00 0.00 0.00 0.00 0.00 0.01 0.01 0.01 0.01 0.01 0.02 0.04 0.05 0.04 0.03 0.03 0.03 0.02 0.02 0.02 0.02 0.02 0.02
0.14 0.15 0.12 0.10 0.11 0.11 0.11 0.10 0.06 0.04 0.03 0.03 0.03 0.03 0.02 0.01 0.01 0.00 0.00 0.00 0.00 0.00 0.00 0.00 0.00 0.01 0.01 0.01 0.01 0.01 0.02 0.03 0.05 0.05 0.04 0.04 0.04 0.03 0.02 0.02 0.02 0.02 0.02
0.12 0.12 0.12 0.11 0.12 0.13 0.12 0.12 0.08 0.06 0.05 0.04 0.04 0.05 0.05 0.03 0.01 0.01 0.00 0.00 0.01 0.01 0.01 0.01 0.01 0.01 0.01 0.02 0.01 0.01 0.02 0.03 0.05 0.07 0.06 0.05 0.05 0.05 0.04 0.03 0.03 0.02 0.02
0.07 0.08 0.10 0.10 0.10 0.11 0.10 0.10 0.09 0.05 0.04 0.04 0.04 0.04 0.04 0.03 0.03 0.02 0.01 0.01 0.01 0.01 0.01 0.01 0.01 0.01 0.01 0.01 0.01 0.01 0.01 0.02 0.04 0.07 0.07 0.06 0.07 0.07 0.07 0.08 0.07 0.04 0.03
0.06 0.06 0.07 0.09 0.10 0.10 0.11 0.11 0.11 0.07 0.04 0.03 0.03 0.03 0.03 0.03 0.03 0.03 0.02 0.01 0.01 0.01 0.02 0.02 0.02 0.02 0.01 0.01 0.02 0.02 0.02 0.02 0.02 0.05 0.07 0.06 0.07 0.08 0.08 0.07 0.09 0.09 0.06
0.04 0.05 0.05 0.06 0.08 0.09 0.10 0.10 0.09 0.07 0.05 0.05 0.04 0.03 0.03 0.02 0.02 0.02 0.02 0.02 0.02 0.02 0.02 0.03 0.03 0.03 0.02 0.02 0.02 0.02 0.02 0.02 0.02 0.03 0.05 0.06 0.06 0.09 0.11 0.09 0.08 0.09 0.08
0.03 0.03 0.03 0.04 0.05 0.07 0.09 0.10 0.09 0.08 0.06 0.06 0.05 0.05 0.04 0.03 0.02 0.02 0.02 0.03 0.02 0.02 0.02 0.02 0.02 0.02 0.02 0.02 0.02 0.02 0.02 0.02 0.02 0.02 0.03 0.04 0.04 0.06 0.10 0.10 0.10 0.11 0.09
0.02 0.02 0.03 0.03 0.03 0.04 0.06 0.07 0.08 0.07 0.06 0.05 0.05 0.04 0.04 0.03 0.02 0.02 0.03 0.03 0.03 0.03 0.03 0.03 0.04 0.03 0.02 0.02 0.02 0.02 0.01 0.02 0.02 0.03 0.03 0.03 0.03 0.03 0.06 0.07 0.07 0.10 0.13
0.02 0.02 0.03 0.03 0.03 0.04 0.04 0.06 0.06 0.06 0.05 0.05 0.05 0.05 0.05 0.04 0.03 0.02 0.03 0.03 0.04 0.04 0.02 0.03 0.05 0.05 0.04 0.04 0.04 0.04 0.02 0.02 0.02 0.03 0.03 0.04 0.03 0.03 0.04 0.05 0.05 0.05 0.09
0.02 0.02 0.03 0.04 0.04 0.04 0.04 0.05 0.05 0.05 0.05 0.04 0.04 0.04 0.05 0.04 0.03 0.03 0.02 0.03 0.03 0.04 0.03 0.03 0.04 0.05 0.05 0.04 0.04 0.05 0.04 0.03 0.03 0.03 0.03 0.04 0.04 0.03 0.03 0.04 0.05 0.04 0.05
0.02 0.02 0.02 0.02 0.03 0.04 0.04 0.04 0.05 0.05 0.05 0.04 0.03 0.03 0.04 0.04 0.03 0.03 0.02 0.02 0.03 0.04 0.05 0.03 0.03 0.04 0.05 0.04 0.04 0.04 0.04 0.04 0.03 0.03 0.03 0.04 0.04 0.03 0.02 0.02 0.03 0.04 0.04
0.02 0.03 0.03 0.03 0.03 0.04 0.04 0.04 0.04 0.05 0.05 0.04 0.04 0.03 0.03 0.03 0.03 0.03 0.03 0.03 0.03 0.04 0.04 0.04 0.04 0.03 0.04 0.05 0.05 0.05 0.05 0.05 0.04 0.04 0.05 0.05 0.05 0.04 0.03 0.02 0.02 0.02 0.03
0.03 0.03 0.03 0.03 0.03 0.03 0.04 0.04 0.04 0.04 0.04 0.05 0.04 0.04 0.03 0.03 0.03 0.03 0.03 0.03 0.03 0.03 0.04 0.04 0.04 0.03 0.03 0.04 0.05 0.06 0.06 0.06 0.07 0.06 0.05 0.06 0.07 0.06 0.05 0.03 0.03 0.03 0.03
0.04 0.04 0.04 0.04 0.04 0.04 0.03 0.04 0.04 0.05 0.05 0.05 0.05 0.05 0.04 0.04 0.04 0.04 0.04 0.04 0.04 0.04 0.04 0.04 0.03 0.03 0.03 0.04 0.05 0.05 0.06 0.07 0.08 0.08 0.07 0.07 0.07 0.07 0.06 0.05 0.04 0.03 0.03
0.04 0.04 0.04 0.04 0.04 0.04 0.04 0.04 0.04 0.04 0.05 0.05 0.05 0.05 0.05 0.05 0.05 0.05 0.05 0.05 0.05 0.05 0.05 0.04 0.04 0.04 0.04 0.04 0.05 0.04 0.05 0.06 0.08 0.10 0.10 0.10 0.08 0.08 0.07 0.06 0.05 0.04 0.03
0.05 0.05 0.05 0.05 0.05 0.05 0.05 0.06 0.05 0.05 0.05 0.06 0.05 0.04 0.04 0.04 0.05 0.05 0.06 0.06 0.06 0.06 0.05 0.05 0.04 0.04 0.04 0.04 0.05 0.05 0.06 0.06 0.08 0.09 0.11 0.12 0.11 0.10 0.10 0.08 0.07 0.06 0.05
0.05 0.05 0.04 0.05 0.05 0.06 0.07 0.06 0.06 0.05 0.04 0.05 0.05 0.05 0.04 0.03 0.03 0.03 0.04 0.05 0.04 0.04 0.04 0.04 0.04 0.04 0.05 0.06 0.07 0.07 0.07 0.08 0.08 0.07 0.09 0.11 0.11 0.10 0.10 0.08 0.07 0.06 0.06
0.04 0.05 0.04 0.04 0.04 0.05 0.05 0.05 0.05 0.04 0.04 0.03 0.03 0.03 0.03 0.03 0.02 0.03 0.04 0.04 0.04 0.04 0.04 0.03 0.04 0.04 0.05 0.06 0.07 0.07 0.08 0.08 0.08 0.06 0.06 0.08 0.10 0.09 0.08 0.08 0.07 0.06 0.06
0.04 0.05 0.04 0.03 0.03 0.04 0.04 0.04 0.04 0.03 0.03 0.03 0.02 0.02 0.02 0.03 0.03 0.04 0.05 0.05 0.04 0.04 0.05 0.05 0.04 0.04 0.04 0.05 0.05 0.05 0.06 0.05 0.06 0.05 0.05 0.05 0.07 0.09 0.07 0.06 0.06 0.06 0.05
0.04 0.03 0.04 0.03 0.03 0.03 0.04 0.04 0.04 0.03 0.03 0.03 0.03 0.02 0.03 0.03 0.04 0.05 0.05 0.06 0.05 0.05 0.06 0.06 0.05 0.05 0.04 0.03 0.04 0.04 0.05 0.06 0.06 0.05 0.04 0.05 0.05 0.06 0.06 0.06 0.05 0.04 0.04
MSLP
1010.47 1009.72 1008.84 1007.89 1006.96 1006.15 1005.57 1005.31 1005.41 1005.88 1006.67 1007.69 1008.83 1009.98 1011.04 1011.96 1012.71 1013.31 1013.81 1014.25 1014.69 1015.16 1015.64 1016.15 1016.63 1017.05 1017.39 1017.61 1017.73 1017.76 1017.73 1017.66 1017.57 1017.48 1017.39 1017.29 1017.16 1016.97 1016.72 1016.39 1015.98 1015.52 1015.01
1010.34 1009.48 1008.45 1007.33 1006.23 1005.24 1004.52 1004.15 1004.20 1004.69 1005.56 1006.72 1008.03 1009.36 1010.59 1011.65 1012.51 1013.16 1013.66 1014.08 1014.48 1014.90 1015.37 1015.87 1016.39 1016.86 1017.26 1017.56 1017.74 1017.81 1017.79 1017.72 1017.62 1017.52 1017.42 1017.31 1017.18 1017.01 1016.78 1016.47 1016.09 1015.65 1015.16
1010.07 1009.10 1007.95 1006.68 1005.42 1004.29 1003.43 1002.97 1002.98 1003.49 1004.45 1005.75 1007.23 1008.76 1010.18 1011.40 1012.36 1013.07 1013.58 1013.97 1014.32 1014.69 1015.12 1015.61 1016.13 1016.65 1017.10 1017.46 1017.70 1017.81 1017.82 1017.76 1017.66 1017.55 1017.44 1017.32 1017.19 1017.03 1016.82 1016.54 1016.19 1015.77 1015.31
1009.67 1008.62 1007.38 1006.01 1004.63 1003.38 1002.42 1001.88 1001.86 1002.39 1003.42 1004.83 1006.48 1008.18 1009.78 1011.16 1012.25 1013.03 1013.57 1013.94 1014.24 1014.56 1014.94 1015.39 1015.91 1016.45 1016.95 1017.36 1017.65 1017.81 1017.85 1017.81 1017.71 1017.59 1017.46 1017.34 1017.20 1017.04 1016.84 1016.58 1016.25 1015.86 1015.42
1009.21 1008.11 1006.81 1005.39 1003.94 1002.62 1001.58 1000.98 1000.92 1001.45 1002.52 1004.02 1005.78 1007.63 1009.39 1010.92 1012.13 1013.00 1013.58 1013.96 1014.24 1014.52 1014.85 1015.27 1015.77 1016.31 1016.83 1017.28 1017.61 1017.81 1017.89 1017.86 1017.77 1017.65 1017.51 1017.37 1017.23 1017.06 1016.86 1016.60 1016.29 1015.92 1015.50
1008.76 1007.65 1006.35 1004.91 1003.44 1002.09 1001.01 1000.36 1000.24 1000.73 1001.80 1003.32 1005.15 1007.10 1008.98 1010.63 1011.96 1012.94 1013.59 1014.01 1014.30 1014.56 1014.86 1015.25 1015.72 1016.25 1016.77 1017.24 1017.59 1017.83 1017.93 1017.93 1017.86 1017.73 1017.60 1017.45 1017.29 1017.11 1016.89 1016.63 1016.32 1015.95 1015.54
1008.40 1007.32 1006.05 1004.66 1003.22 1001.87 1000.76 1000.05 999.87 1000.28 1001.28 1002.76 1004.59 1006.57 1008.52 1010.27 1011.71 1012.79 1013.54 1014.03 1014.36 1014.64 1014.93 1015.30 1015.75 1016.25 1016.76 1017.22 1017.59 1017.85 1017.98 1018.01 1017.96 1017.85 1017.72 1017.56 1017.40 1017.20 1016.97 1016.69 1016.37 1016.00 1015.58
1008.19 1007.17 1005.99 1004.67 1003.29 1001.97 1000.84 1000.08 999.80 1000.09 1000.96 1002.34 1004.09 1006.04 1007.99 1009.80 1011.33 1012.52 1013.39 1013.98 1014.38 1014.70 1015.01 1015.37 1015.80 1016.27 1016.76 1017.21 1017.58 1017.85 1018.01 1018.07 1018.05 1017.98 1017.86 1017.72 1017.56 1017.36 1017.11 1016.82 1016.48 1016.09 1015.67
1008.18 1007.25 1006.17 1004.95 1003.65 1002.37 1001.24 1000.40 1000.01 1000.14 1000.84 1002.04 1003.64 1005.49 1007.40 1009.22 1010.81 1012.10 1013.08 1013.78 1014.29 1014.68 1015.03 1015.40 1015.81 1016.26 1016.72 1017.15 1017.52 1017.80 1017.99 1018.09 1018.12 1018.09 1018.02 1017.92 1017.77 1017.58 1017.33 1017.03 1016.68 1016.27 1015.83
1008.34 1007.51 1006.54 1005.44 1004.22 1002.99 1001.85 1000.95 1000.42 1000.37 1000.86 1001.84 1003.25 1004.93 1006.75 1008.53 1010.15 1011.51 1012.59 1013.42 1014.03 1014.51 1014.92 1015.32 1015.73 1016.16 1016.59 1017.00 1017.36 1017.66 1017.89 1018.04 1018.14 1018.17 1018.17 1018.11 1018.01 1017.84 1017.61 1017.31 1016.96 1016.54 1016.09
1008.64 1007.89 1007.04 1006.03 1004.91 1003.72 1002.57 1001.61 1000.95 1000.71 1000.97 1001.72 1002.90 1004.39 1006.06 1007.76 1009.36 1010.77 1011.94 1012.87 1013.59 1014.16 1014.64 1015.08 1015.50 1015.92 1016.34 1016.74 1017.11 1017.43 1017.70 1017.92 1018.08 1018.20 1018.28 1018.29 1018.24 1018.12 1017.92 1017.64 1017.29 1016.88 1016.42
1008.98 1008.32 1007.55 1006.64 1005.59 1004.45 1003.31 1002.28 1001.51 1001.11 1001.15 1001.66 1002.60 1003.87 1005.37 1006.96 1008.51 1009.92 1011.15 1012.16 1012.98 1013.64 1014.19 1014.68 1015.13 1015.56 1015.98 1016.38 1016.76 1017.11 1017.43 1017.72 1017.96 1018.17 1018.33 1018.43 1018.45 1018.38 1018.23 1017.98 1017.65 1017.25 1016.80
1009.32 1008.72 1008.02 1007.18 1006.19 1005.10 1003.97 1002.91 1002.05 1001.51 1001.36 1001.65 1002.36 1003.42 1004.73 1006.17 1007.64 1009.02 1010.26 1011.33 1012.23 1012.97 1013.60 1014.14 1014.63 1015.09 1015.53 1015.95 1016.35 1016.74 1017.12 1017.47 1017.80 1018.09 1018.33 1018.51 1018.60 1018.60 1018.49 1018.28 1017.98 1017.60 1017.16
1009.59 1009.03 1008.38 1007.59 1006.66 1005.62 1004.51 1003.45 1002.54 1001.89 1001.60 1001.71 1002.21 1003.06 1004.18 1005.46 1006.81 1008.13 1009.36 1010.45 1011.40 1012.21 1012.91 1013.52 1014.06 1014.56 1015.04 1015.50 1015.94 1016.38 1016.80 1017.22 1017.62 1017.99 1018.30 1018.55 1018.70 1018.75 1018.69 1018.52 1018.25 1017.90 1017.48
1009.79 1009.25 1008.63 1007.89 1007.01 1006.01 1004.95 1003.91 1002.98 1002.28 1001.88 1001.84 1002.17 1002.82 1003.75 1004.86 1006.08 1007.30 1008.48 1009.57 1010.55 1011.41 1012.18 1012.86 1013.48 1014.04 1014.57 1015.08 1015.57 1016.06 1016.54 1017.01 1017.47 1017.89 1018.26 1018.56 1018.76 1018.85 1018.83 1018.68 1018.44 1018.12 1017.73
1009.93 1009.40 1008.80 1008.10 1007.27 1006.33 1005.33 1004.32 1003.42 1002.69 1002.23 1002.08 1002.26 1002.74 1003.48 1004.41 1005.47 1006.58 1007.69 1008.75 1009.74 1010.65 1011.48 1012.24 1012.93 1013.57 1014.17 1014.74 1015.29 1015.82 1016.35 1016.86 1017.36 1017.83 1018.24 1018.57 1018.81 1018.93 1018.92 1018.81 1018.58 1018.28 1017.91
1010.06 1009.55 1008.96 1008.29 1007.52 1006.64 1005.70 1004.76 1003.89 1003.17 1002.67 1002.44 1002.48 1002.80 1003.36 1004.12 1005.01 1005.99 1007.00 1008.01 1009.00 1009.94 1010.83 1011.66 1012.44 1013.17 1013.84 1014.48 1015.09 1015.67 1016.24 1016.79 1017.32 1017.81 1018.24 1018.60 1018.86 1019.00 1019.02 1018.92 1018.71 1018.43 1018.08
1010.23 1009.73 1009.17 1008.54 1007.81 1007.00 1006.14 1005.26 1004.44 1003.74 1003.21 1002.91 1002.84 1003.00 1003.39 1003.96 1004.68 1005.51 1006.42 1007.36 1008.33 1009.29 1010.23 1011.13 1012.00 1012.81 1013.57 1014.28 1014.94 1015.57 1016.17 1016.75 1017.30 1017.82 1018.28 1018.66 1018.94 1019.10 1019.14 1019.06 1018.87 1018.60 1018.26
1010.45 1009.98 1009.46 1008.87 1008.20 1007.45 1006.66 1005.85 1005.08 1004.39 1003.85 1003.47 1003.29 1003.31 1003.52 1003.91 1004.45 1005.13 1005.92 1006.78 1007.71 1008.68 1009.65 1010.62 1011.56 1012.45 1013.28 1014.06 1014.78 1015.45 1016.08 1016.69 1017.27 1017.81 1018.30 1018.71 1019.03 1019.23 1019.30 1019.24 1019.08 1018.82 1018.50
1010.75 1010.32 1009.84 1009.29 1008.68 1008.00 1007.27 1006.52 1005.79 1005.12 1004.55 1004.10 1003.81 1003.69 1003.73 1003.93 1004.30 1004.81 1005.47 1006.24 1007.12 1008.07 1009.07 1010.08 1011.08 1012.03 1012.93 1013.76 1014.52 1015.24 1015.91 1016.54 1017.15 1017.73 1018.26 1018.72 1019.09 1019.35 1019.47 1019.47 1019.34 1019.11 1018.81
1011.09 1010.71 1010.28 1009.79 1009.23 1008.61 1007.94 1007.24 1006.54 1005.87 1005.27 1004.76 1004.36 1004.10 1003.97 1003.99 1004.18 1004.53 1005.05 1005.72 1006.52 1007.44 1008.43 1009.46 1010.50 1011.50 1012.44 1013.32 1014.12 1014.87 1015.57 1016.25 1016.90 1017.52 1018.11 1018.64 1019.09 1019.42 1019.62 1019.69 1019.61 1019.43 1019.15
1011.45 1011.12 1010.74 1010.31 1009.80 1009.24 1008.62 1007.96 1007.29 1006.63 1006.00 1005.42 1004.92 1004.52 1004.23 1004.08 1004.09 1004.28 1004.64 1005.19 1005.91 1006.76 1007.73 1008.75 1009.80 1010.82 1011.79 1012.69 1013.53 1014.31 1015.05 1015.76 1016.46 1017.15 1017.81 1018.43 1018.96 1019.40 1019.69 1019.84 1019.85 1019.72 1019.49
1011.78 1011.51 1011.19 1010.80 1010.35 1009.83 1009.26 1008.64 1008.00 1007.34 1006.68 1006.05 1005.46 1004.94 1004.50 1004.19 1004.03 1004.05 1004.27 1004.68 1005.28 1006.06 1006.96 1007.96 1008.98 1010.00 1010.98 1011.91 1012.77 1013.57 1014.34 1015.10 1015.85 1016.60 1017.34 1018.04 1018.68 1019.22 1019.63 1019.89 1019.99 1019.94 1019.77
1012.07 1011.85 1011.57 1011.23 1010.82 1010.35 1009.83 1009.25 1008.63 1007.99 1007.32 1006.64 1005.99 1005.36 1004.80 1004.35 1004.03 1003.89 1003.94 1004.21 1004.69 1005.36 1006.18 1007.11 1008.10 1009.10 1010.07 1011.00 1011.88 1012.71 1013.51 1014.30 1015.10 1015.91 1016.71 1017.50 1018.24 1018.88 1019.40 1019.77 1019.98 1020.02 1019.93
1012.31 1012.13 1011.89 1011.58 1011.22 1010.79 1010.31 1009.78 1009.20 1008.57 1007.91 1007.21 1006.51 1005.81 1005.15 1004.57 1004.11 1003.81 1003.71 1003.82 1004.16 1004.70 1005.42 1006.27 1007.21 1008.18 1009.14 1010.07 1010.96 1011.81 1012.63 1013.46 1014.29 1015.14 1016.00 1016.85 1017.66 1018.39 1019.01 1019.48 1019.80 1019.95 1019.95
1012.51 1012.36 1012.14 1011.87 1011.54 1011.15 1010.72 1010.23 1009.69 1009.10 1008.46 1007.77 1007.04 1006.30 1005.56 1004.88 1004.29 1003.85 1003.59 1003.56 1003.74 1004.15 1004.76 1005.52 1006.39 1007.32 1008.26 1009.19 1010.09 1010.97 1011.82 1012.66 1013.52 1014.39 1015.28 1016.16 1017.01 1017.80 1018.49 1019.05 1019.46 1019.72 1019.83
Thickness
5663 5662 5660 5660 5659 5659 5659 5659 5659 5659 5658 5657 5656 5655 5654 5653 5651 5650 5649 5648 5646 5645 5643 5643 5642 5640 5639 5638 5636 5635 5633 5632 5630 5628 5626 5624 5622 5621 5619 5617 5615 5614 5612
5657 5655 5654 5653 5652 5652 5652 5653 5653 5652 5651 5650 5649 5648 5647 5646 5645 5644 5642 5641 5639 5638 5637 5636 5635 5634 5633 5631 5630 5628 5627 5626 5624 5622 5620 5618 5616 5614 5612 5610 5608 5606 5604
5650 5648 5646 5645 5645 5645 5645 5645 5645 5644 5643 5643 5642 5641 5640 5639 5638 5637 5635 5634 5633 5631 5629 5629 5628 5627 5626 5624 5623 5621 5620 5619 5617 5615 5613 5611 5609 5607 5605 5603 5601 5599 5597
5642 5640 5638 5638 5638 5638 5637 5637 5637 5635 5635 5634 5633 5633 5633 5632 5631 5630 5629 5627 5626 5624 5622 5621 5620 5619 5618 5617 5615 5614 5613 5611 5610 5608 5606 5605 5602 5600 5598 5596 5594 5592 5590
5633 5632 5631 5630 5630 5630 5629 5630 5628 5627 5625 5625 5625 5625 5625 5624 5624 5623 5621 5620 5619 5617 5615 5614 5612 5611 5610 5609 5608 5606 5605 5603 5602 5601 5599 5597 5595 5593 5591 5588 5586 5585 5583
5624 5624 5623 5622 5622 5621 5621 5621 5620 5619 5617 5617 5617 5617 5616 5616 5616 5615 5614 5613 5611 5610 5608 5606 5604 5602 5601 5600 5599 5598 5597 5595 5594 5593 5591 5590 5588 5586 5583 5581 5579 5577 5576
5615 5615 5615 5614 5613 5613 5613 5613 5612 5610 5608 5607 5606 5605 5607 5608 5608 5608 5606 5605 5604 5602 5600 5599 5597 5595 5592 5591 5590 5589 5588 5586 5585 5585 5583 5582 5580 5579 5577 5574 5572 5570 5568
5607 5606 5606 5606 5605 5604 5604 5604 5603 5601 5599 5598 5596 5594 5594 5596 5598 5600 5598 5596 5595 5594 5592 5590 5588 5587 5585 5583 5581 5580 5578 5577 5576 5576 5575 5573 5572 5571 5569 5567 5565 5563 5561
5597 5597 5597 5596 5596 5595 5594 5594 5595 5593 5590 5589 5588 5586 5584 5586 5587 5589 5589 5587 5585 5584 5583 5582 5580 5579 5576 5575 5573 5572 5570 5568 5568 5567 5566 5565 5564 5563 5562 5560 5558 5555 5553
5588 5588 5588 5588 5588 5587 5586 5585 5585 5584 5583 5580 5579 5578 5577 5577 5574 5576 5578 5577 5575 5574 5573 5573 5571 5570 5568 5566 5564 5563 5562 5560 5559 5558 5558 5557 5556 5555 5554 5552 5549 5547 5545
5579 5578 5578 5578 5578 5577 5577 5576 5576 5575 5574 5573 5571 5569 5568 5567 5566 5563 5564 5565 5564 5564 5563 5563 5562 5561 5560 5558 5556 5555 5554 5552 5550 5550 5549 5548 5547 5546 5545 5544 5541 5539 5537
5569 5569 5568 5568 5568 5568 5567 5567 5566 5565 5565 5564 5563 5561 5559 5557 5555 5553 5553 5553 5553 5554 5554 5554 5553 5552 5551 5550 5548 5547 5546 5544 5543 5541 5540 5540 5539 5537 5536 5535 5533 5530 5529
5560 5559 5559 5559 5558 5558 5557 5557 5556 5556 5555 5554 5553 5552 5550 5549 5547 5544 5542 5541 5541 5543 5544 5544 5544 5543 5542 5541 5540 5539 5537 5536 5535 5534 5532 5531 5530 5528 5526 5525 5523 5521 5519
5551 5550 5549 5549 5548 5547 5547 5547 5546 5546 5545 5544 5544 5542 5540 5539 5537 5535 5532 5529 5528 5530 5532 5534 5535 5535 5533 5532 5531 5530 5529 5529 5527 5526 5525 5523 5522 5520 5517 5516 5514 5512 5510
5540 5540 5539 5538 5537 5537 5537 5537 5537 5536 5535 5534 5533 5531 5530 5528 5526 5525 5523 5520 5517 5517 5521 5524 5524 5526 5524 5523 5522 5522 5521 5521 5520 5518 5517 5515 5513 5511 5508 5506 5504 5503 5501
5531 5530 5529 5528 5528 5527 5526 5527 5527 5525 5525 5523 5522 5521 5520 5518 5516 5515 5514 5512 5509 5507 5509 5514 5514 5515 5514 5514 5514 5513 5513 5513 5512 5511 5509 5507 5505 5502 5499 5496 5495 5493 5491
5520 5520 5519 5518 5518 5517 5516 5516 5516 5515 5514 5513 5511 5510 5509 5508 5506 5505 5504 5503 5502 5500 5500 5504 5504 5505 5505 5505 5504 5504 5504 5504 5504 5503 5501 5499 5496 5493 5490 5487 5485 5483 5481
5509 5509 5508 5508 5507 5507 5506 5505 5505 5504 5503 5502 5500 5498 5498 5497 5496 5495 5494 5494 5494 5494 5493 5493 5494 5495 5496 5496 5496 5495 5496 5496 5495 5494 5493 5490 5488 5484 5482 5479 5476 5474 5472
5498 5497 5497 5497 5497 5496 5496 5495 5495 5494 5493 5492 5490 5488 5487 5487 5486 5485 5484 5484 5485 5486 5485 5485 5485 5485 5486 5486 5486 5486 5486 5486 5486 5485 5483 5481 5478 5476 5472 5470 5467 5465 5463
5486 5485 5485 5485 5485 5486 5486 5484 5484 5483 5483 5482 5480 5478 5477 5477 5476 5476 5476 5476 5476 5477 5477 5477 5476 5476 5476 5477 5477 5477 5477 5477 5476 5476 5473 5471 5469 5466 5463 5462 5460 5457 5454
5474 5474 5474 5475 5474 5475 5474 5474 5473 5473 5473 5472 5470 5469 5468 5468 5467 5467 5468 5468 5468 5468 5468 5468 5468 5467 5468 5468 5467 5467 5467 5466 5466 5465 5463 5462 5461 5458 5456 5453 5451 5448 5446
5462 5463 5464 5464 5463 5464 5465 5465 5464 5463 5462 5462 5460 5459 5458 5458 5458 5459 5459 5460 5460 5460 5459 5459 5460 5459 5460 5459 5458 5458 5456 5456 5456 5456 5453 5453 5452 5450 5448 5445 5444 5442 5440
5451 5451 5451 5452 5452 5453 5454 5455 5455 5454 5453 5452 5451 5450 5450 5450 5450 5450 5451 5451 5451 5452 5452 5452 5452 5452 5452 5452 5451 5450 5449 5447 5446 5446 5445 5444 5443 5441 5441 5439 5437 5435 5434
5439 5439 5440 5441 5442 5443 5443 5445 5445 5444 5443 5442 5442 5441 5441 5441 5442 5442 5442 5442 5442 5443 5444 5445 5445 5445 5445 5445 5444 5443 5441 5440 5439 5438 5437 5435 5435 5434 5435 5433 5431 5429 5428
5428 5429 5429 5431 5431 5432 5434 5436 5435 5433 5433 5433 5433 5433 5432 5433 5434 5435 5435 5434 5434 5434 5435 5436 5436 5437 5437 5438 5437 5436 5434 5432 5432 5432 5430 5428 5427 5427 5428 5427 5425 5423 5422
5419 5420 5421 5421 5422 5423 5424 5425 5425 5425 5424 5424 5425 5425 5425 5425 5426 5426 5427 5426 5426 5427 5427 5428 5429 5429 5430 5430 5429 5429 5427 5426 5424 5424 5423 5420 5419 5418 5419 5420 5418 5417 5416